Clarksville, TN

9:58 AM CST on January 16, 2018 (GMT -0600)
Outlaw

Weather History for KCKV - March, 2014

Change the Weather History Date:

Monday, March 17, 2014

  Actual Average Record
Temperature  
Mean Temperature 39 °F 49 °F  
Max Temperature 48 °F 61 °F 82 °F (1989)
Min Temperature 30 °F 37 °F 22 °F (1970)
Degree Days  
Heating Degree Days 26    
Month to date heating degree days 389  
Since 1 July heating degree days 3871  
Cooling Degree Days 0    
Month to date cooling degree days 0  
Year to date cooling degree days  
Moisture  
Dew Point 28 °F    
Average Humidity 74    
Maximum Humidity 89    
Minimum Humidity 58    
Precipitation  
Precipitation 0.00 in 0.13 in 1.30 in (2002)
Month to date precipitation 1.78 2.00  
Year to date precipitation 9.48  
Sea Level Pressure  
Sea Level Pressure 29.86 in    
Wind  
Wind Speed 7 mph (NE)    
Max Wind Speed 20 mph    
Max Gust Speed 24 mph    
Visibility 10 miles    
Events      
T = Trace of Precipitation, MM = Missing Value Source: NWS Daily Summary

Daily Weather History Graph

Daily Weather History Graph

Search for Another Location

Airport or City:

Trip Planner

Search our weather history database for the weather conditions in past years. The results will help you decide how hot, cold, wet, or windy it might be!

Date:

Astronomy

Mar. 17, 2014 Rise Set
Actual Time 6:57 AM CDT 6:58 PM CDT
Civil Twilight 6:31 AM CDT 7:24 PM CDT
Nautical Twilight 6:01 AM CDT 7:54 PM CDT
Astronomical Twilight 5:31 AM CDT 8:25 PM CDT
Moon 8:12 PM CDT (3/17) 7:15 AM CDT (3/17)
Length of Visible Light 12h 52m
Length of Day
12h 01m
Full, 99% of the Moon is Illuminated
Mar 17
Full
Mar 23
Last Quarter
Mar 30
New
Apr 7
First Quarter
Apr 15
Full

Hourly Weather History & Observations

Time (CDT) Temp. Windchill Dew Point Humidity Pressure Visibility Wind Dir Wind Speed Gust Speed Precip Events Conditions
12:52 AM 32.0 °F 22.1 °F 28.0 °F 85% 29.87 in 10.0 mi NNE 13.8 mph - N/A   Overcast
1:38 AM 32.0 °F 20.8 °F 26.6 °F 80% 29.88 in 10.0 mi NNE 17.3 mph 20.7 mph N/A   Overcast
1:52 AM 32.0 °F 22.1 °F 26.1 °F 79% 29.90 in 10.0 mi NNE 13.8 mph - N/A   Overcast
2:52 AM 30.9 °F 20.2 °F 24.1 °F 76% 29.88 in 10.0 mi NNE 15.0 mph - N/A   Overcast
3:52 AM 30.9 °F 21.2 °F 23.0 °F 72% 29.87 in 10.0 mi NNE 12.7 mph - N/A   Overcast
4:52 AM 30.9 °F 21.2 °F 21.9 °F 69% 29.85 in 10.0 mi NNE 12.7 mph - N/A   Overcast
5:52 AM 30.0 °F 21.1 °F 21.9 °F 72% 29.87 in 10.0 mi NE 10.4 mph - N/A   Overcast
6:52 AM 30.0 °F 22.4 °F 21.9 °F 72% 29.91 in 10.0 mi NNE 8.1 mph - N/A   Overcast
7:52 AM 30.0 °F 21.1 °F 21.9 °F 72% 29.91 in 10.0 mi NNE 10.4 mph - N/A   Overcast
8:52 AM 30.9 °F 21.2 °F 23.0 °F 72% 29.90 in 10.0 mi NNE 12.7 mph - N/A   Overcast
9:52 AM 32.0 °F 25.6 °F 24.1 °F 73% 29.92 in 10.0 mi NE 6.9 mph - N/A   Overcast
10:52 AM 35.1 °F 28.6 °F 26.1 °F 70% 29.90 in 10.0 mi North 8.1 mph - N/A   Overcast
11:52 AM 37.0 °F 31.6 °F 28.0 °F 70% 29.88 in 10.0 mi North 6.9 mph - N/A   Overcast
12:52 PM 39.9 °F 34.5 °F 28.9 °F 65% 29.86 in 10.0 mi North 8.1 mph - N/A   Overcast
1:52 PM 43.0 °F 38.8 °F 30.9 °F 62% 29.83 in 10.0 mi NNW 6.9 mph - N/A   Overcast
2:52 PM 43.0 °F 38.8 °F 30.9 °F 62% 29.82 in 10.0 mi ENE 6.9 mph - N/A   Overcast
3:47 PM 44.6 °F 43.1 °F 32.0 °F 61% 29.80 in 10.0 mi Variable 3.5 mph - N/A   Overcast
3:52 PM 45.0 °F 41.8 °F 33.1 °F 63% 29.81 in 10.0 mi NNE 5.8 mph - N/A   Overcast
4:52 PM 46.9 °F - 32.0 °F 56% 29.80 in 10.0 mi Calm Calm - N/A   Mostly Cloudy
5:52 PM 46.9 °F - 32.0 °F 56% 29.82 in 10.0 mi NNE 3.5 mph - N/A   Scattered Clouds
6:52 PM 43.0 °F 39.5 °F 33.1 °F 68% 29.82 in 10.0 mi North 5.8 mph - N/A   Clear
7:52 PM 39.9 °F 37.8 °F 32.0 °F 73% 29.83 in 10.0 mi NE 3.5 mph - N/A   Clear
8:52 PM 37.9 °F 35.5 °F 30.9 °F 76% 29.87 in 10.0 mi ESE 3.5 mph - N/A   Clear
9:52 PM 37.9 °F 34.4 °F 32.0 °F 79% 29.88 in 10.0 mi ESE 4.6 mph - N/A   Clear
10:52 PM 35.1 °F 32.2 °F 30.0 °F 82% 29.88 in 10.0 mi ESE 3.5 mph - N/A   Clear
11:52 PM 34.0 °F 31.0 °F 30.9 °F 89% 29.88 in 10.0 mi ESE 3.5 mph - N/A   Clear